Humboldt, Iowa, United States (50548)
Lat: 42.72N, Lon: 94.22W
Wx Zone: IAZ024
Local Info
Past Weather Observations for Saturday, February 28, 2015

NOTE: This archive is for the closest National Weather Service station to Humboldt. Information may differ from the station used for current weather conditions.

Click here for Long-term Archive

Time Weather Temperature Dewpoint Humidity Pressure Winds Precip Visibility
23:55
Overcast
18°F / -8°C 14°F / -10°C 86% 30.33 in
(1027 mb)
S 6.9 mph
(S 11 kph)
- 10SM
23:35
Overcast
18°F / -8°C 14°F / -10°C 86% 30.33 in
(1027 mb)
S 6.9 mph
(S 11 kph)
- 9SM
23:15
Overcast
18°F / -8°C 14°F / -10°C 86% 30.36 in
(1028 mb)
S 6.9 mph
(S 11 kph)
- 10SM
22:55
Overcast
18°F / -8°C 12°F / -11°C 79% 30.36 in
(1028 mb)
S 6.9 mph
(S 11 kph)
- 10SM
22:35
Overcast
18°F / -8°C 14°F / -10°C 86% 30.36 in
(1028 mb)
S 8.1 mph
(S 13 kph)
- 10SM
22:15
Overcast
18°F / -8°C 12°F / -11°C 79% 30.36 in
(1028 mb)
S 5.8 mph
(S 9 kph)
- 9SM
21:55
Overcast
18°F / -8°C 12°F / -11°C 79% 30.36 in
(1028 mb)
SSE 6.9 mph
(SSE 11 kph)
- 9SM
21:35
Overcast
18°F / -8°C 12°F / -11°C 79% 30.36 in
(1028 mb)
SSE 6.9 mph
(SSE 11 kph)
- 10SM
21:15
Overcast
18°F / -8°C 12°F / -11°C 79% 30.36 in
(1028 mb)
SSE 6.9 mph
(SSE 11 kph)
- 8SM
20:55
Overcast
18°F / -8°C 12°F / -11°C 79% 30.36 in
(1028 mb)
S 9.2 mph
(S 15 kph)
- 10SM
20:35
Overcast
18°F / -8°C 12°F / -11°C 79% 30.36 in
(1028 mb)
SSE 6.9 mph
(SSE 11 kph)
- 10SM
20:15
Overcast
18°F / -8°C 12°F / -11°C 79% 30.36 in
(1028 mb)
SE 5.8 mph
(SE 9 kph)
- 10SM
19:55
Overcast
18°F / -8°C 10°F / -12°C 73% 30.36 in
(1028 mb)
SE 6.9 mph
(SE 11 kph)
- 10SM
19:35
Overcast
18°F / -8°C 10°F / -12°C 73% 30.36 in
(1028 mb)
SE 10.4 mph
(SE 17 kph)
- 10SM
19:15
Mostly Cloudy
18°F / -8°C 10°F / -12°C 73% 30.36 in
(1028 mb)
SE 6.9 mph
(SE 11 kph)
- 10SM
18:55
Clear
18°F / -8°C 10°F / -12°C 73% 30.36 in
(1028 mb)
SSE 5.8 mph
(SSE 9 kph)
- 10SM
18:35
Clear
18°F / -8°C 10°F / -12°C 73% 30.36 in
(1028 mb)
SSE 6.9 mph
(SSE 11 kph)
- 10SM
18:15
Clear
18°F / -8°C 10°F / -12°C 73% 30.36 in
(1028 mb)
SSE 6.9 mph
(SSE 11 kph)
- 10SM
17:35
Clear
19°F / -7°C 10°F / -12°C 68% 30.36 in
(1028 mb)
SSE 9.2 mph
(SSE 15 kph)
- 10SM
17:15
Mostly Cloudy
21°F / -6°C 10°F / -12°C 63% 30.36 in
(1028 mb)
S 12.7 mph
(S 20 kph)
- 10SM
16:55
Overcast
21°F / -6°C 10°F / -12°C 63% 30.36 in
(1028 mb)
S 10.4 mph
(S 17 kph)
- 10SM
16:35
Overcast
21°F / -6°C 9°F / -13°C 58% 30.36 in
(1028 mb)
SSE 10.4 mph
(SSE 17 kph)
- 10SM
16:15
Overcast
21°F / -6°C 10°F / -12°C 63% 30.39 in
(1029 mb)
S 10.4 mph
(S 17 kph)
- 10SM
15:55
Overcast
21°F / -6°C 10°F / -12°C 63% 30.39 in
(1029 mb)
S 12.7 mph
(S 20 kph)
- 10SM
15:35
Overcast
21°F / -6°C 9°F / -13°C 58% 30.39 in
(1029 mb)
S 10.4 mph
(S 17 kph)
- 10SM
15:15
Overcast
21°F / -6°C 9°F / -13°C 58% 30.39 in
(1029 mb)
SSE 11.5 mph
(SSE 19 kph)
- 10SM
14:55
Overcast
21°F / -6°C 9°F / -13°C 58% 30.39 in
(1029 mb)
S 11.5 mph
(S 19 kph)
- 10SM
14:35
Mostly Cloudy
21°F / -6°C 9°F / -13°C 58% 30.39 in
(1029 mb)
S 12.7 mph
(S 20 kph)
- 10SM
14:15
Clear
21°F / -6°C 9°F / -13°C 58% 30.42 in
(1030 mb)
S 13.8 mph
(S 22 kph)
- 10SM
13:55
Partly Cloudy
19°F / -7°C 7°F / -14°C 58% 30.42 in
(1030 mb)
S 10.4 mph
(S 17 kph)
- 10SM
13:35
Mostly Cloudy
19°F / -7°C 9°F / -13°C 63% 30.45 in
(1031 mb)
S 10.4 mph
(S 17 kph)
- 10SM
13:15
Mostly Cloudy
19°F / -7°C 7°F / -14°C 58% 30.45 in
(1031 mb)
SSE 9.2 mph
(SSE 15 kph)
- 10SM
12:55
Clear
19°F / -7°C 7°F / -14°C 58% 30.45 in
(1031 mb)
S 10.4 mph
(S 17 kph)
- 10SM
12:35
Clear
19°F / -7°C 7°F / -14°C 58% 30.48 in
(1032 mb)
SSE 8.1 mph
(SSE 13 kph)
- 10SM
12:15
Clear
18°F / -8°C 5°F / -15°C 58% 30.48 in
(1032 mb)
SSE 10.4 mph
(SSE 17 kph)
- 10SM
11:55
Clear
18°F / -8°C 5°F / -15°C 58% 30.51 in
(1033 mb)
S 13.8 mph
(S 22 kph)
- 10SM
11:35
Clear
16°F / -9°C 3°F / -16°C 57% 30.51 in
(1033 mb)
S 12.7 mph
(S 20 kph)
- 10SM
11:15
Clear
16°F / -9°C 5°F / -15°C 62% 30.51 in
(1033 mb)
S 9.2 mph
(S 15 kph)
- 10SM
10:55
Clear
14°F / -10°C 3°F / -16°C 62% 30.51 in
(1033 mb)
S 9.2 mph
(S 15 kph)
- 10SM
10:35
Clear
12°F / -11°C 3°F / -16°C 67% 30.51 in
(1033 mb)
SSE 10.4 mph
(SSE 17 kph)
- 10SM
10:15
Clear
12°F / -11°C 3°F / -16°C 67% 30.54 in
(1034 mb)
S 10.4 mph
(S 17 kph)
- 10SM
09:55
Clear
10°F / -12°C 3°F / -16°C 72% 30.54 in
(1034 mb)
S 8.1 mph
(S 13 kph)
- 10SM
09:35
Clear
9°F / -13°C 1°F / -17°C 72% 30.54 in
(1034 mb)
S 5.8 mph
(S 9 kph)
- 10SM
09:15
Clear
7°F / -14°C 1°F / -17°C 78% 30.54 in
(1034 mb)
S 6.9 mph
(S 11 kph)
- 10SM
08:55
Clear
3°F / -16°C 1°F / -17°C 92% 30.54 in
(1034 mb)
S 3.5 mph
(S 6 kph)
- 10SM
08:35
Clear
°F / -18°C -4°F / -20°C 84% 30.54 in
(1034 mb)
Calm - 10SM
08:15
Clear
-2°F / -19°C -6°F / -21°C 84% 30.54 in
(1034 mb)
SSE 3.5 mph
(SSE 6 kph)
- 10SM
07:55
Clear
-8°F / -22°C -11°F / -24°C 84% 30.54 in
(1034 mb)
E 4.6 mph
(E 7 kph)
- 10SM
07:35
Clear
-9°F / -23°C -11°F / -24°C 92% 30.54 in
(1034 mb)
Calm - 10SM
07:15
Clear
-11°F / -24°C -15°F / -26°C 84% 30.51 in
(1033 mb)
Calm - 10SM
06:55
Clear
-11°F / -24°C -20°F / -29°C 63% 30.54 in
(1034 mb)
SE 3.5 mph
(SE 6 kph)
- 10SM
06:35
Clear
-9°F / -23°C -15°F / -26°C 77% 30.54 in
(1034 mb)
Calm - 10SM
06:15
Clear
-8°F / -22°C -15°F / -26°C 70% 30.54 in
(1034 mb)
Calm - 10SM
05:55
Clear
-11°F / -24°C -17°F / -27°C 76% 30.54 in
(1034 mb)
Calm - 10SM
05:35
Clear
-9°F / -23°C -17°F / -27°C 70% 30.54 in
(1034 mb)
Calm - 10SM
05:15
Clear
-8°F / -22°C -11°F / -24°C 84% 30.54 in
(1034 mb)
Calm - 10SM
04:55
Clear
-6°F / -21°C -11°F / -24°C 77% 30.54 in
(1034 mb)
Calm - 10SM
04:35
Clear
-6°F / -21°C -9°F / -23°C 84% 30.54 in
(1034 mb)
Calm - 10SM
04:15
Clear
-6°F / -21°C -11°F / -24°C 77% 30.54 in
(1034 mb)
Calm - 10SM
03:55
Clear
-6°F / -21°C -11°F / -24°C 77% 30.51 in
(1033 mb)
Calm - 10SM
03:35
Clear
-8°F / -22°C -11°F / -24°C 84% 30.54 in
(1034 mb)
Calm - 10SM
03:15
Clear
-6°F / -21°C -15°F / -26°C 64% 30.54 in
(1034 mb)
SE 3.5 mph
(SE 6 kph)
- 10SM
02:55
Clear
-2°F / -19°C -9°F / -23°C 71% 30.54 in
(1034 mb)
Calm - 10SM
02:35
Clear
°F / -18°C -2°F / -19°C 92% 30.54 in
(1034 mb)
Calm - 10SM
02:15
Clear
-6°F / -21°C -11°F / -24°C 77% 30.54 in
(1034 mb)
SE 4.6 mph
(SE 7 kph)
- 10SM
01:55
Clear
-8°F / -22°C -11°F / -24°C 84% 30.54 in
(1034 mb)
Calm - 10SM
01:35
Clear
-8°F / -22°C -17°F / -27°C 64% 30.54 in
(1034 mb)
Calm - 10SM
01:15
Clear
°F / -18°C -6°F / -21°C 78% 30.54 in
(1034 mb)
SE 3.5 mph
(SE 6 kph)
- 10SM
00:55
Clear
°F / -18°C -6°F / -21°C 78% 30.54 in
(1034 mb)
SE 3.5 mph
(SE 6 kph)
- 10SM
00:35
Clear
-2°F / -19°C -8°F / -22°C 77% 30.54 in
(1034 mb)
SSE 3.5 mph
(SSE 6 kph)
- 10SM
00:15
Clear
-4°F / -20°C -9°F / -23°C 77% 30.57 in
(1035 mb)
Calm - 10SM
Time Weather Temperature Dewpoint Humidity Pressure Winds Precip Visibility


Weather for websites

WeatherForYou.com, LLC is not responsible for any damages or problems caused by this service. Current weather conditions are obtained from the closest station including government and personal stations which may have varying degrees of accuracy. Weather forecasts are derived from the NOAA NDFD. Like all things, this site belongs to Jesus Christ... He just trusts me to maintain it. If you have any questions or comments email webmaster@weatherforyou.com

Copyright © 2015, WeatherForYou.com LLC. All rights reserved.